Weather History for Oak Ridge, TN

Change the Weather History Date:

Thursday, September 12, 2013

  Actual Average (KTYS) Record (KTYS)
Temperature  
Mean Temperature 78 °F 73 °F  
Max Temperature 90 °F 83 °F 94 °F (1931)
Min Temperature 69 °F 62 °F 45 °F (1940)
Degree Days  
Heating Degree Days 0 0  
Month to date heating degree days 0  
Since 1 July heating degree days 0  
Cooling Degree Days 13 8  
Month to date cooling degree days 113  
Year to date cooling degree days 1394  
Growing Degree Days 28 (Base 50)    
Moisture  
Dew Point 69 °F    
Average Humidity 82    
Maximum Humidity 94    
Minimum Humidity 53    
Precipitation  
Precipitation 0.08 in 0.12 in 1.10 in (1987)
Month to date precipitation 1.25  
Year to date precipitation 34.85  
Snow  
Snow 0.00 in 0.00 in - ()
Month to date snowfall 0.0  
Since 1 July snowfall 0.0  
Since 1 September snowfall 0.0  
Snow Depth -    
Sea Level Pressure  
Sea Level Pressure 30.00 in    
Wind  
Wind Speed 1 mph (South)    
Max Wind Speed 6 mph    
Max Gust Speed -    
Visibility 8 miles    
Events Rain    
T = Trace of Precipitation, MM = Missing Value Source: NWS Daily Summary

Daily Weather History Graph

Daily Weather History Graph

Search for Another Location

Airport:

Trip Planner

Search our weather history database for the weather conditions in past years. The results will help you decide how hot, cold, wet, or windy it might be!

Date:

Astronomy

Sep. 12, 2013 Rise Set
Actual Time 7:17 AM EDT 7:48 PM EDT
Civil Twilight 6:51 AM EDT 8:13 PM EDT
Nautical Twilight 6:21 AM EDT 8:44 PM EDT
Astronomical Twilight 5:50 AM EDT 9:15 PM EDT
Moon 2:31 PM EDT (9/12) No Moon Set
Length of Visible Light 13h 22m
Length of Day
12h 30m
Waxing Crescent, 50% of the Moon is Illuminated
Sep 12
Waxing Crescent
Sep 12
First Quarter
Sep 19
Full
Sep 26
Last Quarter
Oct 4
New

Hourly Weather History & Observations

Time (EDT) Temp. Heat Index Dew Point Humidity Pressure Visibility Wind Dir Wind Speed Gust Speed Precip Events Conditions
12:53 AM 72.0 °F - 69.1 °F 91% 30.08 in 9.0 mi Calm Calm - N/A   Clear
1:53 AM 71.1 °F - 69.1 °F 93% 30.07 in 8.0 mi Calm Calm - N/A   Clear
2:53 AM 70.0 °F - 68.0 °F 93% 30.06 in 6.0 mi Calm Calm - N/A   Clear
3:35 AM 69.8 °F - 68.0 °F 94% 30.11 in 5.0 mi Calm Calm - N/A   Partly Cloudy
3:53 AM 70.0 °F - 68.0 °F 93% 30.06 in 5.0 mi Calm Calm - N/A   Clear
4:10 AM 69.8 °F - 68.0 °F 94% 30.11 in 5.0 mi Calm Calm - N/A   Scattered Clouds
4:53 AM 71.1 °F - 69.1 °F 93% 30.06 in 8.0 mi Calm Calm - N/A   Clear
5:53 AM 70.0 °F - 68.0 °F 93% 30.06 in 7.0 mi Calm Calm - N/A   Scattered Clouds
6:53 AM 71.1 °F - 69.1 °F 93% 30.06 in 8.0 mi Calm Calm - N/A   Partly Cloudy
7:53 AM 70.0 °F - 68.0 °F 93% 30.07 in 5.0 mi Calm Calm - N/A   Clear
8:53 AM 72.0 °F - 69.1 °F 91% 30.07 in 8.0 mi Calm Calm - N/A   Partly Cloudy
9:53 AM 77.0 °F - 70.0 °F 79% 30.06 in 10.0 mi Calm Calm - N/A   Mostly Cloudy
10:53 AM 80.1 °F 83.2 °F 70.0 °F 71% 30.04 in 10.0 mi WSW 3.5 mph - N/A   Clear
11:53 AM 84.0 °F 88.4 °F 70.0 °F 63% 30.03 in 10.0 mi West 3.5 mph - N/A   Scattered Clouds
12:53 PM 87.1 °F 92.0 °F 70.0 °F 57% 30.00 in 10.0 mi Calm Calm - N/A   Clear
1:53 PM 87.1 °F 90.6 °F 68.0 °F 53% 29.98 in 10.0 mi Variable 5.8 mph - N/A   Mostly Cloudy
2:53 PM 84.9 °F 89.4 °F 70.0 °F 61% 29.95 in 10.0 mi Calm Calm - N/A   Overcast
3:53 PM 82.9 °F 86.5 °F 69.1 °F 63% 29.92 in 10.0 mi Variable 3.5 mph - N/A   Scattered Clouds
4:53 PM 84.0 °F 87.8 °F 69.1 °F 61% 29.89 in 10.0 mi South 5.8 mph - N/A   Scattered Clouds
5:53 PM 82.9 °F 87.0 °F 70.0 °F 65% 29.89 in 10.0 mi Variable 5.8 mph - N/A   Partly Cloudy
6:53 PM 81.0 °F 84.9 °F 71.1 °F 72% 29.91 in 10.0 mi Variable 3.5 mph - 0.00 in Rain Light Rain
7:08 PM 77.0 °F - 68.0 °F 74% 29.96 in 10.0 mi Variable 4.6 mph - 0.00 in   Overcast
7:36 PM 71.6 °F - 68.0 °F 88% 29.95 in 10.0 mi ENE 4.6 mph - 0.00 in Rain Light Rain
7:53 PM 71.1 °F - 68.0 °F 90% 29.92 in 10.0 mi East 3.5 mph - 0.00 in   Mostly Cloudy
8:53 PM 71.1 °F - 68.0 °F 90% 29.94 in 10.0 mi Calm Calm - N/A   Scattered Clouds
9:53 PM 69.1 °F - 66.9 °F 93% 29.95 in 9.0 mi Calm Calm - N/A   Partly Cloudy
10:53 PM 69.1 °F - 66.9 °F 93% 29.94 in 4.0 mi Calm Calm - 0.07 in Rain Rain
11:53 PM 69.1 °F - 66.9 °F 93% 29.93 in 8.0 mi Calm Calm - 0.01 in   Clear